Tracking 28052 objects as of 24-Sep-2023
HD Live streaming from Space Station
objects crossing your sky now

STARLINK-30141

Track STARLINK-30141 now!
10-day predictions
STARLINK-30141 is classified as:


NORAD ID: 57620
Int'l Code: 2023-119U
Perigee: 559.5 km
Apogee: 560.8 km
Inclination: 43.0 °
Period: 95.7 minutes
Semi major axis: 6931 km
RCS: Unknown
Launch date: August 11, 2023
Source: United States (US)
Launch site: AIR FORCE EASTERN TEST RANGE (AFETR)
Your satellite tracking list
Your tracking list is empty




NASA's NSSDC Master Catalog

Two Line Element Set (TLE):
1 57620U 23119U   23266.53237752  .00001548  00000-0  12327-3 0  9995
2 57620  42.9995 282.4732 0000908 228.0221 132.0545 15.04501318  7917
Source of the keplerian elements: AFSPC